Weather History for El Dorado, AR

Change the Weather History Date:

Monday, January 6, 2014

  Actual Average Record
Temperature  
Mean Temperature 20 °F 44 °F  
Max Temperature 28 °F 54 °F 76 °F (1982)
Min Temperature 12 °F 33 °F 10 °F (1924)
Degree Days  
Heating Degree Days 45 22  
Month to date heating degree days 173 130  
Since 1 July heating degree days 1397 1217  
Cooling Degree Days 0 0  
Month to date cooling degree days 0 0  
Year to date cooling degree days 0 0  
Moisture  
Dew Point 4 °F    
Average Humidity 53    
Maximum Humidity 76    
Minimum Humidity 29    
Precipitation  
Precipitation 0.00 in 0.14 in 2.42 in (1979)
Month to date precipitation 0.06 0.82  
Year to date precipitation 0.06 0.82  
Snow  
Snow 0.00 in - - ()
Month to date snowfall 0.0  
Since 1 July snowfall T  
Snow Depth 0.00 in    
Sea Level Pressure  
Sea Level Pressure 30.61 in    
Wind  
Wind Speed 9 mph (NW)    
Max Wind Speed 21 mph    
Max Gust Speed 26 mph    
Visibility 10 miles    
Events      
T = Trace of Precipitation, MM = Missing Value Source: NWS Daily Summary

Daily Weather History Graph

Daily Weather History Graph

Search for Another Location

Airport:

Trip Planner

Search our weather history database for the weather conditions in past years. The results will help you decide how hot, cold, wet, or windy it might be!

Date:

Astronomy

Jan. 06, 2014 Rise Set
Actual Time 7:15 AM CST 5:19 PM CST
Civil Twilight 6:48 AM CST 5:46 PM CST
Nautical Twilight 6:17 AM CST 6:17 PM CST
Astronomical Twilight 5:47 AM CST 6:47 PM CST
Moon 10:50 AM CST (1/6) 11:31 PM CST (1/6)
Length of Visible Light 10h 58m
Length of Day
10h 03m
Waxing Crescent, 35% of the Moon is Illuminated
Jan 6
Waxing Crescent
Jan 7
First Quarter
Jan 15
Full
Jan 23
Last Quarter
Jan 30
New

Hourly Weather History & Observations

Time (CST) Temp. Windchill Dew Point Humidity Pressure Visibility Wind Dir Wind Speed Gust Speed Precip Events Conditions
12:53 AM 21.0 °F 9.3 °F 12.9 °F 71% 30.46 in 10.0 mi NW 11.5 mph - N/A   Clear
1:53 AM 19.9 °F 9.3 °F 12.0 °F 71% 30.48 in 10.0 mi NNW 9.2 mph - N/A   Clear
2:53 AM 19.9 °F 9.3 °F 6.1 °F 55% 30.52 in 10.0 mi NNW 9.2 mph 20.7 mph N/A   Clear
3:53 AM 19.0 °F 9.0 °F 5.0 °F 54% 30.54 in 10.0 mi NNW 8.1 mph - N/A   Clear
4:53 AM 17.1 °F 6.6 °F 10.0 °F 74% 30.56 in 10.0 mi NNW 8.1 mph - N/A   Clear
5:53 AM 16.0 °F 7.4 °F 8.1 °F 71% 30.58 in 10.0 mi WNW 5.8 mph - N/A   Clear
6:53 AM 14.0 °F 3.9 °F 7.0 °F 74% 30.61 in 10.0 mi NW 6.9 mph - N/A   Clear
7:53 AM 15.1 °F 7.7 °F 6.1 °F 68% 30.63 in 10.0 mi NW 4.6 mph - N/A   Clear
8:53 AM 18.0 °F 6.9 °F 3.9 °F 54% 30.67 in 10.0 mi NNW 9.2 mph - N/A   Clear
9:53 AM 19.9 °F 6.2 °F 1.9 °F 46% 30.68 in 10.0 mi NW 15.0 mph - N/A   Clear
10:53 AM 21.9 °F 6.9 °F -0.0 °F 38% 30.68 in 10.0 mi NW 19.6 mph 25.3 mph N/A   Clear
11:53 AM 24.1 °F 10.6 °F -0.0 °F 35% 30.64 in 10.0 mi WNW 17.3 mph 25.3 mph N/A   Clear
12:53 PM 26.1 °F 14.0 °F -0.9 °F 31% 30.61 in 10.0 mi NNW 15.0 mph 23.0 mph N/A   Clear
1:53 PM 26.1 °F 14.5 °F -0.9 °F 31% 30.59 in 10.0 mi NW 13.8 mph 19.6 mph N/A   Clear
2:53 PM 28.0 °F 16.5 °F -0.0 °F 30% 30.60 in 10.0 mi NW 15.0 mph 19.6 mph N/A   Clear
3:53 PM 28.0 °F 20.0 °F -0.0 °F 30% 30.60 in 10.0 mi WNW 8.1 mph 18.4 mph N/A   Clear
4:53 PM 25.0 °F 14.8 °F -0.0 °F 34% 30.60 in 10.0 mi NW 10.4 mph - N/A   Clear
5:53 PM 23.0 °F 15.8 °F -0.0 °F 37% 30.61 in 10.0 mi WNW 5.8 mph - N/A   Clear
6:53 PM 21.0 °F 14.6 °F 1.0 °F 42% 30.64 in 10.0 mi WNW 4.6 mph - N/A   Clear
7:53 PM 19.0 °F 13.9 °F 1.9 °F 47% 30.65 in 10.0 mi West 3.5 mph - N/A   Clear
8:53 PM 15.1 °F 9.4 °F 7.0 °F 70% 30.65 in 10.0 mi NW 3.5 mph - N/A   Clear
9:53 PM 15.1 °F - 7.0 °F 70% 30.64 in 10.0 mi Calm Calm - N/A   Clear
10:53 PM 12.9 °F 6.9 °F 7.0 °F 77% 30.66 in 10.0 mi NNW 3.5 mph - N/A   Clear
11:53 PM 12.9 °F - 6.1 °F 74% 30.62 in 10.0 mi Calm Calm - N/A   Clear